Regional Weather Roundup
Issued by NWS

Home | Current Version | Previous Version | Graphics & Text | Print | Product List | Glossary On
Versions: 1 2 3 4 5 6 7 8 9 10 11 12 13 14 15 16 17 18 19 20 21 22 23 24 25 26 27 28 29 30 31 32 33 34 35 36 37 38 39 40 41 42 43 44 45 46 47 48 49 50
635
ASUS45 KPSR 200210
RWRAZ

ARIZONA HOURLY REGIONAL WEATHER ROUNDUP
NATIONAL WEATHER SERVICE PHOENIX AZ
700 PM MST SUN FEB 19 2017

NOTE: FAIR INDICATES FEW OR NO CLOUDS BELOW 12,000 FEET WITH NO
SIGNIFICANT WEATHER AND/OR OBSTRUCTIONS TO VISIBILITY.

AZZ001>003-036-200300-
NORTHWEST ARIZONA

CITY           SKY/WX    TMP DP  RH WIND       PRES   REMARKS
BULLHEAD CITY  CLOUDY    63  50  63 S6        29.95R
KINGMAN        CLOUDY    50  36  58 SW12      29.98R
$$

AZZ004>008-015-016-018-200300-
NORTH CENTRAL ARIZONA

CITY           SKY/WX    TMP DP  RH WIND       PRES   REMARKS
GRAND CANYON   LGT RAIN  37  36  96 SW9       29.98R WCI  30
WILLIAMS       LGT RAIN  36  34  93 SW10G17   30.00R WCI  28
PRESCOTT       MOCLDY    41  38  89 SW6       30.00R
FLAGSTAFF      CLOUDY    34  32  92 W10       29.99R WCI  26
PAYSON         MOCLDY    41  39  93 CALM      30.04R
PAGE           PTCLDY    49  34  56 W3        29.89R
$$

AZZ009>014-017-200300-
NORTHEAST ARIZONA

CITY           SKY/WX    TMP DP  RH WIND       PRES   REMARKS
WINSLOW        CLEAR     45  35  68 SW16      29.96R
SAINT JOHNS    CLOUDY    42  32  67 W17       29.96R
WINDOW ROCK    LGT RAIN  34  31  88 S5        29.96R WCI  30
SHOW LOW       MOCLDY    34  32  93 S14       30.01R WCI  24
$$

AZZ023-200300-
GREATER PHOENIX AREA

CITY           SKY/WX    TMP DP  RH WIND       PRES   REMARKS
PHOENIX        LGT RAIN  58  50  75 CALM      29.99R
BUCKEYE        CLOUDY    57  57 100 E5        30.00R
GLENDALE       MOCLDY    57  57 100 CALM      30.00R
LUKE AFB       PTCLDY    58  54  88 SE6       29.98R
DEER VALLEY    CLEAR     54  52  93 SE5       29.99R
SCOTTSDALE     CLOUDY    56  51  84 CALM      29.99R
MESA-FALCON      N/A    N/A N/A N/A E3        29.98R
MESA-GATEWAY   MOCLDY    55  50  82 VRB5      30.02
CHANDLER       MOCLDY    57  52  82 VRB5      30.01R
$$

AZZ027-028-200300-
SOUTHWEST MARICOPA COUNTY AND PINAL COUNTY

CITY           SKY/WX    TMP DP  RH WIND       PRES   REMARKS
CASA GRANDE    NOT AVBL
GILA BEND      FAIR      58  55  90 SE6       29.99R
$$

AZZ503-504-507>509-200300-
SOUTHEAST ARIZONA

CITY           SKY/WX    TMP DP  RH WIND       PRES   REMARKS
TUCSON         CLOUDY    54  47  77 E6        30.04R
DAVIS-MONTHAN  CLOUDY    53  48  84 SE6       30.03R
RYAN FIELD     CLOUDY    55  45  67 CALM      30.03R
NOGALES        LGT RAIN  49  42  77 S7        30.05R
SIERRA VISTA   CLOUDY    47  37  69 SW12      30.05R
DOUGLAS        CLOUDY    47  42  83 NE5       30.04R
SAFFORD        MOCLDY    52  40  63 NW8       30.00R
$$

AZZ020-021-025-026-031-200300-
SOUTHWEST ARIZONA

CITY           SKY/WX    TMP DP  RH WIND       PRES   REMARKS
YUMA           PTCLDY    64  51  62 S3        29.96R
$$

CAZ031-033-041-043-047-048-061-200300-
SOUTHERN CALIFORNIA

CITY           SKY/WX    TMP DP  RH WIND       PRES   REMARKS
DOWNTOWN L.A.  CLOUDY    59  49  69 W5        30.04R
L.A. AIRPORT   LGT RAIN  56  50  80 SW8       30.05R
SAN DIEGO      MOCLDY    58  43  57 S5        30.08R
BURBANK        LGT RAIN  55  48  77 S7        30.03R
ONTARIO        MOCLDY    54  47  77 W9        30.03R
RIVERSIDE      CLOUDY    56  49  77 W3        30.03R
PALM SPRINGS   MOCLDY    63  49  60 NW10      29.97R
EL CENTRO NAS  CLEAR     62  43  49 SW13      29.98R
IMPERIAL       CLEAR     62  46  55 W12       29.95R
BLYTHE         MOCLDY    63  52  67 S9        29.95R
NEEDLES        CLOUDY    62  52  69 S6        29.95R
$$

NVZ020-UTZ003-200300-
SOUTHERN NEVADA-UTAH

CITY           SKY/WX    TMP DP  RH WIND       PRES   REMARKS
LAS VEGAS      PTCLDY    58  37  45 S7        29.90R
SALT LAKE CITY MOCLDY    47  40  76 S12       29.79R
$$

NMZ009-TXZ055-200300-
NEW MEXICO-WEST TEXAS

CITY           SKY/WX    TMP DP  RH WIND       PRES   REMARKS
ALBUQUERQUE    CLOUDY    48  31  51 NW8       29.92R
EL PASO        PTCLDY    54  27  35 W14       29.96R
$$


........................KEY........................
SKY/WX - SKY CONDITION/WEATHER
TMP    - TEMPERATURE IN FAHRENHEIT
DP     - DEW POINT IN FAHRENHEIT
RH     - RELATIVE HUMIDITY IN PERCENT
WIND   - DIRECTION AND SPEED IN MILES PER HOUR (MPH)
VRB    - VARIABLE WIND DIRECTION
PRES   - MEAN SEA LEVEL PRESSURE IN INCHES OF MERCURY
         F - FALLING PRESSURE   R - RISING PRESSURE
         S - STEADY PRESSURE
VSB    - VISIBILITY IN MILES
HX     - HEAT INDEX IN FAHRENHEIT
WCI    - WIND CHILL INDEX IN FAHRENHEIT
TC     - TEMPERATURE IN CELSIUS WHICH IS ALSO KNOWN AS
         TEMPERATURE IN CENTIGRADE
AFB    - AIR FORCE BASE
         LUKE AFB IS LUKE AIR FORCE BASE
         DAVIS-MONTHAN IS DAVIS-MONTHAN AIR FORCE BASE
NAS    - NAVAL AIR STATION
         EL CENTRO NAS IS EL CENTRO NAVAL AIR STATION
N/A    - NOT AVAILABLE





USA.gov is the U.S. government's official web portal to all federal, state and local government web resources and services.